When you browse on this site, cookies collect data to enhance your experience and personalize the content and advertising you see.
Visit our Privacy Policy to learn more. By continuing to use the site, you agree to this use of cookies and data.
  • In Austria
  • List of Countries
  • For 7 days
  • Water Temperature
  • Weather Map
  • News
  • Weather Widgets
  • user-avatar
    Login

    Hourly Weather Shargorod

    Today, 15 September, Sunday

    Time Temperature Precipitation Wind Pressure Humidity
    00:00 +10°C° 0 mm 3 mps 747 mmHg 71%
    01:00 +9°C° 0 mm 2 mps 747 mmHg 73%
    02:00 +9°C° 0 mm 2 mps 747 mmHg 75%
    03:00 +9°C° 0 mm 2 mps 747 mmHg 77%
    04:00 +8°C° 0 mm 2 mps 747 mmHg 78%
    05:00 +8°C° 0 mm 2 mps 747 mmHg 79%
    06:00 +10°C° 0 mm 2 mps 747 mmHg 72%
    07:00 +12°C° 0 mm 2 mps 747 mmHg 66%
    08:00 +14°C° 0 mm 2 mps 747 mmHg 59%
    09:00 +15°C° 0 mm 2 mps 747 mmHg 52%
    10:00 +17°C° 0 mm 2 mps 746 mmHg 45%
    11:00 +19°C° 0 mm 3 mps 746 mmHg 37%
    12:00 +20°C° 0 mm 3 mps 746 mmHg 35%
    13:00 +20°C° 0 mm 3 mps 745 mmHg 32%
    14:00 +21°C° 0 mm 3 mps 745 mmHg 29%
    15:00 +21°C° 0 mm 3 mps 744 mmHg 30%
    16:00 +21°C° 0 mm 3 mps 743 mmHg 31%
    17:00 +21°C° 0 mm 3 mps 743 mmHg 32%
    18:00 +19°C° 0 mm 3 mps 743 mmHg 37%
    19:00 +17°C° 0 mm 2 mps 742 mmHg 42%
    20:00 +14°C° 0 mm 2 mps 742 mmHg 48%
    21:00 +14°C° 0 mm 2 mps 742 mmHg 50%
    22:00 +14°C° 0 mm 2 mps 741 mmHg 52%
    23:00 +13°C° 0 mm 3 mps 741 mmHg 54%

    Tomorrow, 16 September, Monday

    Time Temperature Precipitation Wind Pressure Humidity
    00:00 +13°C° 0 mm 2 mps 741 mmHg 55%
    01:00 +13°C° 0 mm 2 mps 741 mmHg 56%
    02:00 +13°C° 0 mm 2 mps 740 mmHg 56%
    03:00 +12°C° 0 mm 2 mps 740 mmHg 58%
    04:00 +12°C° 0 mm 2 mps 740 mmHg 60%
    05:00 +10°C° 0 mm 2 mps 739 mmHg 62%
    06:00 +12°C° 0 mm 3 mps 739 mmHg 57%
    07:00 +14°C° 0 mm 3 mps 739 mmHg 52%
    08:00 +17°C° 0 mm 4 mps 739 mmHg 48%
    09:00 +19°C° 0 mm 5 mps 739 mmHg 46%
    10:00 +21°C° 0 mm 5 mps 739 mmHg 44%
    11:00 +23°C° 0 mm 6 mps 739 mmHg 42%
    12:00 +24°C° 0 mm 6 mps 738 mmHg 40%
    13:00 +24°C° 0 mm 6 mps 738 mmHg 38%
    14:00 +26°C° 0 mm 6 mps 737 mmHg 35%
    15:00 +26°C° 0 mm 5 mps 737 mmHg 36%
    16:00 +25°C° 0 mm 5 mps 737 mmHg 37%
    17:00 +25°C° 0 mm 5 mps 736 mmHg 37%
    18:00 +22°C° 0 mm 4 mps 736 mmHg 43%
    19:00 +19°C° 0 mm 3 mps 736 mmHg 49%
    20:00 +17°C° 0 mm 3 mps 736 mmHg 55%
    21:00 +16°C° 0 mm 2 mps 736 mmHg 61%
    22:00 +16°C° 0 mm 2 mps 736 mmHg 68%
    23:00 +15°C° 0 mm 1 mps 736 mmHg 75%

    Day after tomorrow, 17 September, Tuesday

    Time Temperature Precipitation Wind Pressure Humidity
    00:00 +15°C° 0 mm 2 mps 736 mmHg 75%
    01:00 +15°C° 0 mm 2 mps 735 mmHg 75%
    02:00 +15°C° 0 mm 2 mps 735 mmHg 76%
    03:00 +15°C° 0.3 mm 2 mps 735 mmHg 79%
    04:00 +15°C° 0.3 mm 2 mps 734 mmHg 83%
    05:00 +14°C° 0.3 mm 2 mps 734 mmHg 86%
    06:00 +14°C° 1.6 mm 2 mps 734 mmHg 89%
    07:00 +14°C° 1.6 mm 2 mps 734 mmHg 91%
    08:00 +13°C° 1.6 mm 3 mps 734 mmHg 93%
    09:00 +13°C° 0.5 mm 3 mps 734 mmHg 92%
    10:00 +13°C° 0.5 mm 4 mps 734 mmHg 90%
    11:00 +13°C° 0.5 mm 4 mps 734 mmHg 89%
    12:00 +15°C° 0.1 mm 5 mps 734 mmHg 78%
    13:00 +16°C° 0.1 mm 6 mps 734 mmHg 68%
    14:00 +17°C° 0.1 mm 6 mps 734 mmHg 57%
    15:00 +17°C° 0 mm 6 mps 734 mmHg 56%
    16:00 +16°C° 0 mm 6 mps 734 mmHg 55%
    17:00 +16°C° 0 mm 5 mps 733 mmHg 54%
    18:00 +15°C° 0 mm 5 mps 733 mmHg 59%
    19:00 +13°C° 0 mm 4 mps 733 mmHg 64%
    20:00 +12°C° 0 mm 3 mps 734 mmHg 68%
    21:00 +12°C° 0 mm 4 mps 734 mmHg 67%
    22:00 +12°C° 0 mm 4 mps 734 mmHg 66%
    23:00 +12°C° 0 mm 5 mps 733 mmHg 65%

    18 September, Wednesday

    Time Temperature Precipitation Wind Pressure Humidity
    00:00 +10°C° 0.1 mm 5 mps 734 mmHg 67%
    01:00 +10°C° 0.1 mm 5 mps 734 mmHg 68%
    02:00 +9°C° 0.1 mm 5 mps 734 mmHg 69%
    03:00 +9°C° 0 mm 5 mps 734 mmHg 69%
    04:00 +9°C° 0 mm 5 mps 734 mmHg 69%
    05:00 +9°C° 0 mm 5 mps 734 mmHg 69%
    06:00 +9°C° 0 mm 6 mps 735 mmHg 67%
    07:00 +9°C° 0 mm 7 mps 735 mmHg 65%
    08:00 +9°C° 0 mm 8 mps 735 mmHg 64%
    09:00 +10°C° 0 mm 8 mps 736 mmHg 57%
    10:00 +11°C° 0 mm 9 mps 736 mmHg 50%
    11:00 +12°C° 0 mm 9 mps 737 mmHg 43%
    12:00 +13°C° 0 mm 9 mps 737 mmHg 43%
    13:00 +13°C° 0 mm 9 mps 737 mmHg 43%
    14:00 +13°C° 0 mm 9 mps 737 mmHg 43%
    15:00 +12°C° 0 mm 8 mps 738 mmHg 45%
    16:00 +11°C° 0 mm 7 mps 738 mmHg 48%
    17:00 +10°C° 0 mm 7 mps 738 mmHg 50%
    18:00 +9°C° 0 mm 6 mps 739 mmHg 56%
    19:00 +8°C° 0 mm 4 mps 739 mmHg 62%
    20:00 +8°C° 0 mm 3 mps 740 mmHg 67%
    21:00 +7°C° 0 mm 3 mps 740 mmHg 69%
    22:00 +5°C° 0 mm 3 mps 740 mmHg 72%
    23:00 +5°C° 0 mm 3 mps 740 mmHg 74%

    19 September, Thursday

    Time Temperature Precipitation Wind Pressure Humidity
    00:00 +5°C° 0 mm 3 mps 740 mmHg 76%
    01:00 +4°C° 0 mm 3 mps 740 mmHg 77%
    02:00 +4°C° 0 mm 3 mps 741 mmHg 79%
    03:00 +4°C° 0 mm 3 mps 740 mmHg 82%
    04:00 +3°C° 0 mm 3 mps 740 mmHg 86%
    05:00 +3°C° 0 mm 3 mps 740 mmHg 89%
    06:00 +4°C° 0 mm 3 mps 740 mmHg 82%
    07:00 +7°C° 0 mm 3 mps 740 mmHg 75%
    08:00 +7°C° 0 mm 4 mps 740 mmHg 67%
    09:00 +10°C° 0 mm 4 mps 740 mmHg 60%
    10:00 +12°C° 0 mm 5 mps 740 mmHg 53%
    11:00 +14°C° 0 mm 5 mps 740 mmHg 45%
    12:00 +14°C° 0.2 mm 5 mps 740 mmHg 45%
    13:00 +15°C° 0.2 mm 5 mps 740 mmHg 45%
    14:00 +15°C° 0.2 mm 6 mps 739 mmHg 44%
    15:00 +14°C° 0.1 mm 5 mps 739 mmHg 46%
    16:00 +14°C° 0.1 mm 4 mps 739 mmHg 47%
    17:00 +14°C° 0.1 mm 3 mps 740 mmHg 48%
    18:00 +12°C° 0 mm 3 mps 740 mmHg 55%
    19:00 +10°C° 0 mm 2 mps 740 mmHg 61%
    20:00 +8°C° 0 mm 2 mps 740 mmHg 67%
    21:00 +8°C° 0 mm 2 mps 740 mmHg 70%
    22:00 +7°C° 0 mm 2 mps 741 mmHg 72%
    23:00 +7°C° 0 mm 2 mps 741 mmHg 75%

    20 September, Friday

    Time Temperature Precipitation Wind Pressure Humidity
    00:00 +6°C° 0 mm 2 mps 741 mmHg 77%
    01:00 +6°C° 0 mm 2 mps 741 mmHg 78%
    02:00 +6°C° 0 mm 2 mps 741 mmHg 80%
    03:00 +5°C° 0 mm 2 mps 741 mmHg 82%
    04:00 +5°C° 0 mm 2 mps 741 mmHg 84%
    05:00 +4°C° 0 mm 2 mps 741 mmHg 86%
    06:00 +6°C° 0 mm 2 mps 741 mmHg 81%
    07:00 +7°C° 0 mm 3 mps 741 mmHg 76%
    08:00 +8°C° 0 mm 3 mps 741 mmHg 70%
    09:00 +10°C° 0.2 mm 3 mps 742 mmHg 64%
    10:00 +11°C° 0.2 mm 3 mps 742 mmHg 57%
    11:00 +13°C° 0.2 mm 3 mps 742 mmHg 50%
    12:00 +13°C° 0.4 mm 4 mps 742 mmHg 49%
    13:00 +13°C° 0.4 mm 4 mps 741 mmHg 47%
    14:00 +14°C° 0.4 mm 5 mps 741 mmHg 45%
    15:00 +13°C° 0 mm 5 mps 741 mmHg 44%
    16:00 +13°C° 0 mm 4 mps 741 mmHg 42%
    17:00 +13°C° 0 mm 4 mps 741 mmHg 40%
    18:00 +11°C° 0 mm 4 mps 742 mmHg 49%
    19:00 +8°C° 0 mm 4 mps 742 mmHg 58%
    20:00 +6°C° 0 mm 4 mps 743 mmHg 67%
    21:00 +5°C° 0 mm 4 mps 743 mmHg 73%
    22:00 +5°C° 0 mm 4 mps 743 mmHg 80%
    23:00 +4°C° 0 mm 4 mps 743 mmHg 86%
    Show more